This is the latest recevied weather packets stored in our database for station/object KC8UZG. If no packets are shown the sender has not sent any weather packets the latest 10 day(s).
| Time | Temp. | Humidity | Pressure | Rain* | Wind** | Luminosity | Snow |
|---|---|---|---|---|---|---|---|
| 1778109927 | 12.78° C | 63% | 1012.5 hPa | 0 mm | - | 28 W/m² | - |
| 1778109332 | 13.33° C | 64% | 1012.5 hPa | 0 mm | - | 34 W/m² | - |
| 1778108739 | 13.33° C | 62% | 1012.5 hPa | 0 mm | - | 38 W/m² | - |
| 1778108118 | 13.33° C | 63% | 1012.7 hPa | 0 mm | - | 49 W/m² | - |
| 1778107523 | 13.33° C | 62% | 1012.9 hPa | 0 mm | - | 62 W/m² | - |
| 1778106930 | 13.89° C | 62% | 1012.9 hPa | 0 mm | - | 75 W/m² | - |
| 1778106335 | 13.33° C | 62% | 1013.1 hPa | 0 mm | - | 88 W/m² | - |
| 1778105741 | 13.33° C | 62% | 1013.2 hPa | 0 mm | - | 94 W/m² | - |
| 1778105120 | 13.33° C | 62% | 1013 hPa | 0 mm | - | 87 W/m² | - |
| 1778104526 | 13.33° C | 63% | 1012.9 hPa | 0 mm | - | 72 W/m² | - |
| 1778103932 | 13.89° C | 63% | 1012.7 hPa | 0 mm | - | 93 W/m² | - |
| 1778103338 | 13.89° C | 63% | 1012.9 hPa | 0 mm | - | 102 W/m² | - |
| 1778102717 | 13.33° C | 62% | 1012.7 hPa | 0 mm | - | 101 W/m² | - |
| 1778102123 | 13.33° C | 61% | 1012.6 hPa | 0 mm | - | 108 W/m² | - |
| 1778101530 | 13.33° C | 62% | 1012.5 hPa | 0 mm | - | 114 W/m² | - |
| 1778100935 | 13.33° C | 63% | 1012.5 hPa | 0 mm | - | 94 W/m² | - |
| 1778100342 | 13.89° C | 64% | 1012.5 hPa | 0 mm | - | 107 W/m² | - |
| 1778099720 | 13.33° C | 63% | 1012.5 hPa | 0 mm | - | 104 W/m² | - |
| 1778099126 | 13.33° C | 62% | 1012.5 hPa | 0 mm | - | 91 W/m² | - |
| 1778098532 | 13.89° C | 62% | 1012.5 hPa | 0 mm | - | 82 W/m² | - |
| 1778097938 | 13.33° C | 62% | 1012.5 hPa | 0 mm | - | 135 W/m² | - |
| 1778097317 | 13.33° C | 64% | 1012.5 hPa | 0 mm | - | 82 W/m² | - |
| 1778096723 | 13.33° C | 63% | 1012.5 hPa | 0 mm | - | 136 W/m² | - |
| 1778096129 | 13.33° C | 62% | 1012.2 hPa | 0 mm | - | 85 W/m² | - |
| 1778095535 | 13.89° C | 62% | 1012.4 hPa | 0 mm | - | 122 W/m² | - |
* Rain latest hour (hover to see other rain measurements)
** Current wind speed in m/s (hover to see current wind gust speed)